Tracking 19576 objects as of 17-Feb-2019
HD Live streaming from Space Station
objects crossing your sky now

AUREOLE 1

Track AUREOLE 1 now!
10-day predictions
AUREOLE 1 is classified as:


NORAD ID: 5729
Int'l Code: 1971-119A
Perigee: 394.3 km
Apogee: 1,576.8 km
Inclination: 74.0 °
Period: 104.7 minutes
Semi major axis: 7356 km
RCS: 2.1591 m2 (large)
Launch date: December 27, 1971
Source: France (FR)
Launch site: PLESETSK MISSILE AND SPACE COMPLEX (PKMTR)
aabbcc
Your satellite tracking list
Your tracking list is empty




NASA's NSSDC Master Catalog

Two Line Element Set (TLE):
1  5729U 71119A   19047.95347159 +.00001185 +00000-0 +94063-4 0  9997
2  5729 073.9595 350.6563 0803706 023.3774 340.1830 13.75920569271478
Source of the keplerian elements: AFSPC